File timestamp: Mon Aug  8 03:00:00 2016, Internal temp: 41.351318359375
1470625201, -0.00102848093956709, -0.0163146499544382, -0.0141950221732259, 33214, 32660, 23387, -160.782485961914
1470625202, -0.0518178194761276, -0.0158271808177233, -0.0150330429896712, 33277, 32645, 23299, NaN
1470625203.01, -0.034146174788475, -0.0167015120387077, -0.0162220615893602, 33263, 32691, 23322, NaN
1470625204.01, 0.0197099782526493, -0.018485639244318, -0.0144278984516859, 33200, 32671, 23409, NaN
1470625205.01, 0.0198483504354954, -0.0188544914126396, -0.0149607881903648, 33212, 32651, 23433, NaN
1470625206.01, -0.0182028878480196, -0.0171939712017775, -0.0169561635702848, 33267, 32684, 23346, NaN
1470625206.01, -0.0134958913549781, -0.0173642355948687, -0.017516428604722, 33253, 32694, 23345, NaN
1470625207.016, 0.0142965335398912, -0.0187158640474081, -0.0167241767048836, 33234, 32676, 23405, NaN
1470625208.016, 0.00434573320671916, -0.0195342712104321, -0.0174650754779577, 33210, 32663, 23397, NaN
1470625209.016, -0.0220225192606449, -0.0179834365844727, -0.0180890541523695, 33251, 32671, 23340, NaN
1470625210.016, -0.0176743678748608, -0.0159634687006474, -0.0183474067598581, 33249, 32691, 23321, NaN
1470625211.016, 0.00381768983788788, -0.0154638085514307, -0.0179065633565187, 33220, 32679, 23386, NaN
1470625212.016, 0.00812778156250715, -0.0168943405151367, -0.017706785351038, 33231, 32660, 23386, NaN
1470625213.016, 0.00205481331795454, -0.016734205186367, -0.0171109177172184, 33241, 32676, 23364, NaN
1470625214.024, 0.00180437753442675, -0.0165477246046066, -0.0168849434703588, 33201, 32671, 23386, NaN
1470625215.024, -0.0101396758109331, -0.0166390500962734, -0.017621086910367, 33194, 32691, 23392, NaN
1470625216.024, -0.0311041884124279, -0.0165947731584311, -0.0185359828174114, 33243, 32677, 23362, NaN
1470625217.024, -0.0185612756758928, -0.0175759438425303, -0.0194533448666334, 33294, 32671, 23324, NaN
1470625218.024, 0.0279639922082424, -0.0180536434054375, -0.0173293929547071, 33255, 32655, 23394, NaN
1470625219.024, 0.0381879135966301, -0.0174983572214842, -0.01627435721457, 33176, 32671, 23455, NaN
1470625220.024, -0.00841954723000526, -0.0155338980257511, -0.0167459659278393, 33218, 32706, 23383, NaN
1470625221.024, -0.0368444286286831, -0.0148393036797643, -0.0179276689887047, 33250, 32700, 23319, NaN
1470625222.024, -0.00974270235747099, -0.0143061857670546, -0.0187552273273468, 33257, 32683, 23319, NaN
1470625223.024, 0.0428093858063221, -0.0150730516761541, -0.0184615291655064, 33215, 32673, 23397, NaN
1470625224.024, 0.0641038119792938, -0.0159325189888477, -0.0161532498896122, 33199, 32688, 23431, NaN
1470625225.024, 0.0316449366509914, -0.0155276274308562, -0.0171478018164635, 33189, 32688, 23403, NaN
1470625226.032, -0.0086229145526886, -0.0154816117137671, -0.0186900366097689, 33216, 32701, 23324, NaN
1470625227.032, 0.00412444490939379, -0.015318782068789, -0.0206467155367136, 33279, 32672, 23304, NaN
1470625228.032, 0.0620796978473663, -0.0165723972022533, -0.0208725593984127, 33272, 32658, 23378, NaN
1470625229.032, 0.0928326025605202, -0.0174353588372469, -0.0198347549885511, 33226, 32683, 23411, NaN
1470625230.032, 0.0771849974989891, -0.0168928802013397, -0.0182541906833649, 33225, 32669, 23374, NaN
1470625231.032, 0.05412557721138, -0.0157720968127251, -0.0176823195070028, 33238, 32672, 23366, NaN
1470625232.032, 0.0491498932242393, -0.0147008989006281, -0.0186837818473577, 33225, 32662, 23363, NaN
1470625233.032, 0.0618396773934364, -0.0132962185889482, -0.0187847781926394, 33235, 32684, 23372, NaN
1470625234.032, 0.0823577642440796, -0.0132020348683, -0.0183558724820614, 33229, 32725, 23373, NaN
1470625235.032, 0.0952254608273506, -0.0143656693398952, -0.0183379203081131, 33210, 32662, 23396, NaN
1470625236.032, 0.0852979570627213, -0.0142114870250225, -0.0179402455687523, 33212, 32645, 23383, NaN
1470625237.042, 0.061768040060997, -0.0132389524951577, -0.0185739584267139, 33230, 32667, 23385, NaN
1470625238.042, 0.0504311360418797, -0.0125919291749597, -0.0200104750692844, 33256, 32713, 23332, NaN
1470625239.042, 0.07208551466465, -0.013685361482203, -0.0207824315875769, 33233, 32679, 23371, NaN
1470625239.042, 0.0841718018054962, -0.0142530426383018, -0.0210965350270271, 33223, 32638, 23421, NaN
1470625240.048, 0.060340590775013, -0.0132956970483065, -0.0206122789531946, 33218, 32681, 23390, NaN
1470625241.048, 0.0438770353794098, -0.0115954298526049, -0.0206681974232197, 33262, 32713, 23344, NaN
1470625242.048, 0.0585526823997498, -0.0121214324608445, -0.0206937994807959, 33278, 32645, 23360, NaN
1470625243.048, 0.0740517601370811, -0.0125371748581529, -0.0195036996155977, 33227, 32658, 23396, NaN
1470625244.048, 0.0677879229187965, -0.0125898104161024, -0.0185191705822945, 33186, 32681, 23400, NaN
1470625245.048, 0.0422489196062088, -0.0114538324996829, -0.0189039185643196, 33212, 32702, 23367, NaN
1470625246.048, 0.020487055182457, -0.0106399524956942, -0.0194672252982855, 33250, 32665, 23322, NaN
1470625247.048, 0.0332173444330692, -0.011578256264329, -0.0189205426722765, 33272, 32652, 23337, NaN
1470625248.058, 0.0694149807095528, -0.0114527540281415, -0.0185673553496599, 33230, 32649, 23403, NaN
1470625248.058, 0.0592780224978924, -0.0112514700740576, -0.0180468279868364, 33197, 32674, 23463, NaN
1470625249.066, 0.00236260937526822, -0.0107487170025706, -0.0198638271540403, 33249, 32680, 23360, NaN
1470625250.066, -0.0144920824095607, -0.0100493645295501, -0.021389476954937, 33297, 32671, 23294, NaN
1470625251.066, 0.0352870970964432, -0.0102182971313596, -0.0214435998350382, 33276, 32643, 23338, NaN
1470625252.066, 0.0848708972334862, -0.0115047581493855, -0.0201425384730101, 33250, 32637, 23429, NaN
1470625252.066, 0.0760141536593437, -0.0110079450532794, -0.01888632401824, 33215, 32662, 23398, NaN
1470625253.07, 0.0392874889075756, -0.010512251406908, -0.0181973818689585, 33254, 32679, 23375, NaN
1470625254.07, 0.00947698019444942, -0.0103884367272258, -0.0196960177272558, 33244, 32681, 23369, NaN
1470625255.07, -0.00203046412207186, -0.010311771184206, -0.0198729075491428, 33261, 32680, 23343, NaN
1470625256.07, 0.00571465725079179, -0.0104631343856454, -0.0202664136886597, 33251, 32669, 23351, NaN
1470625257.07, 0.0204940047115088, -0.0122927026823163, -0.0205867271870375, 33250, 32653, 23377, -160.946090698242
1470625258.078, 0.0187465623021126, -0.0126374904066324, -0.0207113865762949, 33225, 32685, 23391, NaN
1470625259.078, -0.00639839144423604, -0.0121485898271203, -0.0216740183532238, 33244, 32679, 23386, NaN
1470625260.078, -0.0242604520171881, -0.0120447892695665, -0.0214439947158098, 33245, 32677, 23346, NaN
1470625261.078, -0.0191065259277821, -0.0128304995596409, -0.0212351623922586, 33266, 32645, 23349, NaN
1470625261.078, -0.000465976190753281, -0.0127817280590534, -0.0213698484003544, 33275, 32631, 23361, NaN
1470625262.084, 0.0103739751502872, -0.0122735761106014, -0.021238362416625, 33215, 32684, 23417, NaN
1470625263.084, -0.00529434019699693, -0.0112383142113686, -0.0218740813434124, 33205, 32681, 23397, NaN
1470625264.084, -0.0310644153505564, -0.0107271485030651, -0.0227166190743446, 33248, 32661, 23349, NaN
1470625265.084, -0.0265990905463696, -0.00973499659448862, -0.0233205575495958, 33262, 32682, 23358, NaN
1470625265.084, -0.00644198153167963, -0.0104679288342595, -0.0223304834216833, 33199, 32675, 23406, NaN
1470625266.086, -0.014344172552228, -0.0106810033321381, -0.0216118078678846, 33220, 32659, 23393, NaN
1470625267.086, -0.0265934336930513, -0.0105425473302603, -0.0229116193950176, 33237, 32681, 23358, NaN
1470625268.096, -0.0154764261096716, -0.0112597541883588, -0.0229250565171242, 33235, 32706, 23365, NaN
1470625269.096, -0.00663596671074629, -0.0129016684368253, -0.0227635428309441, 33221, 32673, 23409, NaN
1470625270.096, -0.0206430274993181, -0.0125120664015412, -0.021882863715291, 33211, 32658, 23383, NaN
1470625271.096, -0.0315749160945415, -0.0109677640721202, -0.0228075832128525, 33264, 32674, 23333, NaN
1470625272.096, -0.00887652207165956, -0.00975602399557829, -0.0226798318326473, 33271, 32684, 23334, NaN
1470625273.096, 0.0263519249856472, -0.0102555993944407, -0.0213604792952538, 33222, 32691, 23399, NaN
1470625274.096, 0.0260024555027485, -0.0112586161121726, -0.0206756088882685, 33194, 32682, 23398, NaN
1470625275.096, 0.000536555366124958, -0.0105584729462862, -0.0206610504537821, 33178, 32670, 23381, NaN
1470625276.096, -0.0157625302672386, -0.00926917418837547, -0.0200959853827953, 33211, 32695, 23355, NaN
1470625277.096, -0.00545005826279521, -0.00870330352336168, -0.0203903503715992, 33249, 32713, 23329, NaN
1470625278.096, 0.0196583662182093, -0.0106252357363701, -0.0206897556781769, 33244, 32698, 23372, NaN
1470625279.096, 0.0331378579139709, -0.0117107164114714, -0.0208392180502415, 33210, 32663, 23389, NaN
1470625280.104, 0.0283962618559599, -0.0125706791877747, -0.0206630490720272, 33201, 32678, 23381, NaN
1470625281.104, 0.0139297032728791, -0.0119827371090651, -0.0206953976303339, 33217, 32686, 23384, NaN
1470625282.104, -0.00497452728450298, -0.0114437518641353, -0.0209553726017475, 33206, 32687, 23368, NaN
1470625283.104, -0.0164134316146374, -0.0116299707442522, -0.0222925171256065, 33266, 32669, 23315, NaN
1470625284.104, 0.00856034457683563, -0.0122513649985194, -0.0229265503585339, 33281, 32686, 23309, NaN
1470625285.104, 0.0550468824803829, -0.0132012572139502, -0.0221591386944056, 33210, 32687, 23359, NaN
1470625286.104, 0.0624786540865898, -0.0145797170698643, -0.0199715681374073, 33159, 32651, 23446, NaN
1470625287.104, 0.0124062886461616, -0.0128982942551374, -0.0196775235235691, 33186, 32678, 23384, NaN
1470625288.104, -0.0355731509625912, -0.011080164462328, -0.0207776706665754, 33244, 32739, 23306, NaN
1470625289.104, -0.0242131296545267, -0.0121234860271215, -0.0211770497262478, 33247, 32689, 23334, NaN
1470625290.104, 0.0123529061675072, -0.0140625452622771, -0.0206055957823992, 33196, 32663, 23395, NaN
1470625291.112, 0.0195904411375523, -0.014398823492229, -0.0195170771330595, 33209, 32680, 23407, NaN
1470625292.112, -0.000540880369953811, -0.0141515210270882, -0.0202396903187037, 33226, 32700, 23394, NaN
1470625293.112, -0.0159353166818619, -0.0143841532990336, -0.0214427206665277, 33220, 32709, 23363, NaN
1470625293.112, -0.0163194686174393, -0.0151279997080564, -0.0209154170006514, 33222, 32674, 23421, NaN
1470625294.12, -0.00302974367514253, -0.0158783998340368, -0.0208543576300144, 33235, 32619, 23429, NaN
1470625295.12, 0.0273848362267017, -0.0160631034523249, -0.0201332364231348, 33236, 32635, 23403, NaN
1470625296.12, 0.0832162871956825, -0.0144424997270107, -0.0183981154114008, 33243, 32682, 23411, NaN
1470625297.12, 0.0569385476410389, -0.0141137782484293, -0.0160787831991911, 33198, 32666, 23461, NaN
1470625298.12, 0.0344890952110291, -0.01470344979316, -0.0156106166541576, 33174, 32629, 23495, NaN
1470625299.12, 0.0155632793903351, -0.013589478097856, -0.016460258513689, 33201, 32672, 23404, NaN
1470625300.12, -0.000137933311634697, -0.0122824180871248, -0.0170841608196497, 33246, 32706, 23389, NaN
1470625301.12, -0.0129067441448569, -0.0121363829821348, -0.016346188262105, 33228, 32687, 23437, NaN
1470625302.12, -0.0230272933840752, -0.0137145183980465, -0.0163771864026785, 33164, 32644, 23475, NaN
1470625302.12, -0.0307744070887566, -0.0148439276963472, -0.0175329837948084, 33190, 32630, 23467, NaN
1470625303.128, -0.0364123918116093, -0.0137271136045456, -0.0179117396473885, 33251, 32665, 23407, NaN
1470625304.128, -0.040193933993578, -0.0122755439952016, -0.0179196540266275, 33236, 32709, 23402, NaN
1470625305.128, -0.0423590950667858, -0.0127684604376554, -0.0177858639508486, 33227, 32650, 23439, NaN
1470625306.128, -0.0431344620883465, -0.0134174786508083, -0.0163744203746319, 33231, 32622, 23426, NaN
1470625306.132, -0.0427324585616589, -0.0130613520741463, -0.0157174468040466, 33223, 32648, 23406, NaN
1470625307.134, -0.0413508117198944, -0.011552520096302, -0.0149453142657876, 33232, 32688, 23426, NaN
1470625308.134, -0.0391721837222576, -0.0110025843605399, -0.0143905654549599, 33211, 32685, 23467, NaN
1470625309.134, -0.0363639891147614, -0.011541330255568, -0.0139861768111587, 33206, 32656, 23439, NaN
1470625310.134, -0.0330783687531948, -0.0119866635650396, -0.0151259331032634, 33211, 32660, 23397, NaN
1470625311.134, -0.0294522847980261, -0.0128224026411772, -0.0154826017096639, 33259, 32682, 23413, NaN
1470625312.142, -0.0256078168749809, -0.0138430884107947, -0.0159143693745136, 33236, 32675, 23431, NaN
1470625313.142, -0.0216525383293629, -0.0148494793102145, -0.015867693349719, 33194, 32642, 23474, -161.021240234375
1470625314.142, -0.0176800321787596, -0.0153814842924476, -0.01753787137568, 33219, 32650, 23450, NaN
1470625315.142, -0.0137705039232969, -0.0153524251654744, -0.0191214885562658, 33254, 32640, 23398, NaN
1470625315.142, -0.00999146979302168, -0.0147841069847345, -0.0206829365342855, 33275, 32667, 23371, NaN
1470625316.148, -0.00639853626489639, -0.0153891034424305, -0.0193683095276356, 33244, 32659, 23409, NaN
1470625317.148, -0.00303620868362486, -0.0160264819860458, -0.0176714416593313, 33205, 32634, 23487, NaN
1470625318.148, 6.12413859926164e-05, -0.0157381854951382, -0.0168944131582975, 33171, 32670, 23484, NaN
1470625319.148, 0.00286889495328069, -0.0146801164373755, -0.0169029422104359, 33246, 32701, 23376, NaN
1470625319.148, 0.00537028489634395, -0.0145403547212481, -0.0174511931836605, 33295, 32658, 23331, NaN
1470625320.15, 0.00755650084465742, -0.0154312523081899, -0.0157990399748087, 33227, 32642, 23408, NaN
1470625321.15, 0.00942529924213886, -0.0160150062292814, -0.0139511292800307, 33175, 32665, 23502, NaN
1470625322.16, 0.00251213437877595, -0.015017906203866, -0.0144614772871137, 33178, 32675, 23461, NaN
1470625323.16, -0.0164741091430187, -0.015053816139698, -0.0163454562425613, 33250, 32692, 23361, NaN
1470625323.16, 0.0119211375713348, -0.0159400869160891, -0.0174128618091345, 33270, 32651, 23361, NaN
1470625324.168, 0.0246749855577946, -0.0167306996881962, -0.0167075861245394, 33227, 32634, 23439, NaN
1470625325.168, 0.0236086398363113, -0.016121331602335, -0.0161424279212952, 33228, 32682, 23453, NaN
1470625326.168, 0.0133069334551692, -0.0154892867431045, -0.0156627558171749, 33241, 32667, 23437, NaN
1470625327.168, -0.0134476777166128, -0.0171365346759558, -0.0162277035415173, 33219, 32638, 23456, NaN
1470625328.168, -0.0440820008516312, -0.016955241560936, -0.0169179644435644, 33221, 32649, 23407, NaN
1470625329.168, -0.04566615447402, -0.0152913508936763, -0.016177274286747, 33247, 32696, 23378, NaN
1470625330.168, -0.013206479139626, -0.0152937527745962, -0.0144378701224923, 33237, 32675, 23432, NaN
1470625331.168, -0.00598456244915724, -0.0166557729244232, -0.0133871827274561, 33195, 32631, 23482, NaN
1470625332.168, -0.0472818166017532, -0.0163593124598265, -0.0148613601922989, 33232, 32650, 23433, NaN
1470625333.176, -0.0753062516450882, -0.0152633069083095, -0.0166723914444447, 33262, 32648, 23364, NaN
1470625334.176, -0.0583480037748814, -0.0147466184571385, -0.0168079696595669, 33228, 32681, 23401, NaN
1470625335.176, -0.0354371704161167, -0.0155714843422174, -0.0168044492602348, 33223, 32686, 23446, NaN
1470625336.176, -0.035505935549736, -0.016565103083849, -0.0163864828646183, 33225, 32652, 23421, NaN
1470625337.176, -0.0370965413749218, -0.0175966862589121, -0.0164099521934986, 33223, 32633, 23415, NaN
1470625338.176, -0.0228300895541906, -0.0174963623285294, -0.0160035472363234, 33235, 32654, 23409, NaN
1470625339.176, 0.00125321059022099, -0.0169842466711998, -0.0146481171250343, 33220, 32688, 23424, NaN
1470625340.176, 0.000131239401525818, -0.016591215506196, -0.0137224541977048, 33193, 32654, 23484, NaN
1470625341.176, -0.0209890566766262, -0.0172016285359859, -0.0152997560799122, 33258, 32635, 23402, NaN
1470625342.176, 0.00494454614818096, -0.0185680035501719, -0.0156685095280409, 33247, 32667, 23356, NaN
1470625343.176, 0.0676109567284584, -0.0189578644931316, -0.0138249890878797, 33183, 32665, 23468, NaN
1470625344.176, 0.0810752362012863, -0.0189751759171486, -0.0133311050012708, 33183, 32662, 23521, NaN
1470625345.184, 0.034568052738905, -0.018448306247592, -0.0146706877276301, 33232, 32640, 23455, NaN
1470625346.184, 0.0153454830870032, -0.0175257716327906, -0.0166503824293613, 33235, 32693, 23372, NaN
1470625346.184, 0.0527592115104198, -0.0176438447088003, -0.0169356185942888, 33228, 32669, 23415, NaN
1470625347.19, 0.101525850594044, -0.0188319776207209, -0.016575800254941, 33190, 32671, 23454, NaN
1470625348.19, 0.120128594338894, -0.0200419928878546, -0.0160951893776655, 33183, 32648, 23474, NaN
1470625349.19, 0.101267769932747, -0.0198981333523989, -0.0159760769456625, 33208, 32646, 23462, NaN
1470625350.19, 0.0698194205760956, -0.0189544800668955, -0.0158580951392651, 33242, 32655, 23416, NaN
1470625351.19, 0.0595334507524967, -0.0175433196127415, -0.0166093893349171, 33230, 32680, 23401, NaN
1470625352.19, 0.0685879066586494, -0.0175659097731113, -0.0147507479414344, 33196, 32667, 23427, NaN
1470625353.19, 0.0723231360316277, -0.0167658962309361, -0.0140649536624551, 33213, 32669, 23431, NaN
1470625354.19, 0.0676351636648178, -0.0174438860267401, -0.0138763524591923, 33225, 32661, 23434, NaN
1470625355.2, 0.0583811961114407, -0.0175663661211729, -0.0145363919436932, 33211, 32652, 23430, NaN
1470625355.2, 0.0496354550123215, -0.0167834013700485, -0.0145498756319284, 33195, 32667, 23428, NaN
1470625356.208, 0.0385206751525402, -0.0159907974302769, -0.0156677942723036, 33217, 32682, 23435, NaN
1470625357.208, 0.0305791739374399, -0.0158137995749712, -0.0168490819633007, 33224, 32662, 23418, NaN
1470625358.208, 0.0374415405094624, -0.0147016867995262, -0.0178132429718971, 33225, 32649, 23426, NaN
1470625359.208, 0.0600107721984386, -0.01488256175071, -0.0183838978409767, 33238, 32656, 23425, NaN
1470625359.208, 0.090483084321022, -0.0140522634610534, -0.0182269737124443, 33247, 32649, 23421, NaN
1470625360.212, 0.116836242377758, -0.0143945692107081, -0.0182182565331459, 33203, 32659, 23444, NaN
1470625361.212, 0.129360243678093, -0.0140834301710129, -0.0177147686481476, 33202, 32673, 23448, NaN
1470625362.212, 0.135397106409073, -0.0134266968816519, -0.0171689372509718, 33212, 32668, 23435, NaN
1470625363.212, 0.148963108658791, -0.0138324592262506, -0.0176483523100615, 33250, 32663, 23399, NaN
1470625364.212, 0.115091688930988, -0.013419802300632, -0.0176813285797834, 33218, 32646, 23422, NaN
1470625365.22, 0.0524141900241375, -0.0126083018258214, -0.0179950464516878, 33177, 32679, 23462, NaN
1470625366.22, -0.000178214337211102, -0.0121448757126927, -0.0173589587211609, 33200, 32678, 23455, NaN
1470625367.22, -0.0435056760907173, -0.0125579470768571, -0.0188504308462143, 33236, 32636, 23420, -160.964004516602
1470625368.22, -0.0783805474638939, -0.0132572241127491, -0.019747830927372, 33270, 32636, 23390, NaN
1470625368.22, -0.105601951479912, -0.0131857302039862, -0.0199945624917746, 33219, 32658, 23430, NaN
1470625369.226, -0.125950545072556, -0.011178151704371, -0.0181638672947884, 33192, 32663, 23477, NaN
1470625370.226, -0.140183568000793, -0.0108797885477543, -0.0175370629876852, 33202, 32627, 23447, NaN
1470625371.226, -0.149030238389969, -0.0114245591685176, -0.0178112480789423, 33252, 32643, 23380, NaN
1470625372.226, -0.153187796473503, -0.0103939743712544, -0.0179449021816254, 33254, 32659, 23401, NaN
1470625373.226, -0.153317913413048, -0.0103993825614452, -0.0161871537566185, 33176, 32652, 23486, NaN
1470625374.226, -0.15004375576973, -0.0101488009095192, -0.0157350637018681, 33175, 32640, 23477, NaN
1470625375.226, -0.143947750329971, -0.00963799003511667, -0.0171923618763685, 33223, 32659, 23383, NaN
1470625376.236, -0.135569766163826, -0.00965805724263191, -0.0181761495769024, 33235, 32669, 23365, NaN
1470625377.236, -0.125405997037888, -0.0107403341680765, -0.0184953883290291, 33237, 32636, 23440, NaN
1470625377.236, -0.113908417522907, -0.0118275303393602, -0.0177283827215433, 33191, 32623, 23467, NaN
1470625378.216, -0.101484693586826, -0.0117158414795995, -0.0179608892649412, 33199, 32619, 23486, NaN
1470625379.216, -0.0884986594319344, -0.0108110578730702, -0.0187517534941435, 33242, 32678, 23386, NaN
1470625380.216, -0.0752712190151215, -0.0105240549892187, -0.018976466730237, 33276, 32653, 23380, NaN
1470625381.216, -0.0620816275477409, -0.012013141065836, -0.0184284131973982, 33221, 32633, 23434, NaN
1470625382.216, -0.0491691380739212, -0.0124829960986972, -0.0169960744678974, 33173, 32643, 23496, NaN
1470625383.216, -0.037242729216814, -0.0125162564218044, -0.0164212081581354, 33188, 32671, 23453, NaN
1470625384.216, -0.0360489077866077, -0.0111589320003986, -0.0168744381517172, 33210, 32662, 23410, NaN
1470625385.216, -0.0178414024412632, -0.0111016957089305, -0.0179999880492687, 33247, 32618, 23413, NaN
1470625386.216, 0.00037337452522479, -0.0124695636332035, -0.0176826622337103, 33244, 32629, 23386, NaN
1470625387.226, 0.00899761728942394, -0.0126977162435651, -0.0163563899695873, 33187, 32653, 23480, NaN
1470625388.226, 0.0117326350882649, -0.0123712224885821, -0.0156285129487514, 33191, 32635, 23477, NaN
1470625389.226, -0.0127328978851438, -0.0119860572740436, -0.0160707831382751, 33201, 32649, 23429, NaN
1470625390.226, -0.0192363504320383, -0.0126617019996047, -0.0177935361862183, 33249, 32644, 23380, NaN
1470625391.226, 0.0167000908404589, -0.0134312361478806, -0.0173187665641308, 33270, 32631, 23395, NaN
1470625392.226, 0.0507398098707199, -0.0145770441740751, -0.0173011254519224, 33227, 32651, 23473, NaN
1470625393.226, 0.0413809642195702, -0.0151089411228895, -0.0162328816950321, 33200, 32652, 23464, NaN
1470625394.226, 0.0134368166327477, -0.0147276613861322, -0.0162349138408899, 33203, 32662, 23412, NaN
1470625395.226, 0.0132987247779965, -0.0147224515676498, -0.0175149068236351, 33232, 32681, 23403, NaN
1470625396.226, 0.0390020087361336, -0.0147308306768537, -0.0166293084621429, 33242, 32643, 23439, NaN
1470625397.226, 0.0425112098455429, -0.0156041113659739, -0.0149906426668167, 33185, 32645, 23460, NaN
1470625398.226, 0.0176632609218359, -0.0154800042510033, -0.0146220242604613, 33147, 32674, 23442, NaN
1470625399.234, 0.0101285893470049, -0.0157332830131054, -0.0159387942403555, 33237, 32642, 23389, NaN
1470625400.234, 0.0302185080945492, -0.0164502672851086, -0.0170408822596073, 33241, 32645, 23447, NaN
1470625400.234, 0.0413475707173347, -0.0170000493526459, -0.0151140112429857, 33226, 32640, 23454, NaN
1470625401.24, 0.0323771573603153, -0.0169400610029697, -0.0148198753595352, 33190, 32661, 23441, NaN
1470625402.24, 0.0211753062903881, -0.0179144516587257, -0.0153633784502745, 33207, 32646, 23445, NaN
1470625403.24, 0.0147827100008726, -0.0183439552783966, -0.0158958397805691, 33271, 32621, 23449, NaN
1470625404.24, 0.0252441242337227, -0.0186302457004786, -0.0160349328070879, 33247, 32646, 23412, NaN
1470625405.24, 0.0466254130005836, -0.0189762134104967, -0.0148065406829119, 33185, 32674, 23433, NaN
1470625406.24, 0.0508783720433712, -0.0186874717473984, -0.0137699013575912, 33191, 32655, 23473, NaN
1470625407.24, 0.0327180586755276, -0.018935265019536, -0.0135464072227478, 33223, 32612, 23436, NaN
1470625408.24, 0.0209425333887339, -0.0191567242145538, -0.0145771652460098, 33237, 32655, 23410, NaN
1470625409.248, 0.0330790393054485, -0.0190294031053782, -0.014059703797102, 33229, 32644, 23435, NaN
1470625409.248, 0.0428165122866631, -0.0200262926518917, -0.0137802623212337, 33172, 32656, 23468, NaN
1470625410.256, 0.0300616919994354, -0.020797573029995, -0.0130540747195482, 33218, 32651, 23460, NaN
1470625411.256, 0.0114809675142169, -0.0206465478986502, -0.0133403856307268, 33243, 32634, 23409, NaN
1470625412.256, 0.0242289435118437, -0.0196297094225883, -0.0131059652194381, 33237, 32661, 23393, NaN